Погода в Медвежьих Озёрах

Россия / Московская область     55°51′54″N   37°59′12″E
темп.,
°C
ветер,
м/с
пор.,
м/с
влажн.,
%
обл.,
%
осадки,
мм/ч
давл.,
гПа
погр.,
м
8 марта, пн
пн800:00−7з5138667 0.2 996468
03:00−10зюз3109441 0.2 996267
06:00−9зюз31095100 0.1 996358
09:00−7зсз5988100 0.4 997821
12:00−5сз4780100 0.1 10011151
15:00−5сз5778100 0.2 10031174
18:00−8ссз4987100 0.2 1006531
21:00−12ссз269369 0.2 1009158
9 марта, вт
вт900:00−15ссз35960 0.0 1011100
03:00−16сз35970 0.0 1013125
06:00−18ссз369748 0.0 1014136
09:00−17ссз379237 0.0 1016299
12:00−13ссз468575 0.0 1017600
15:00−12ссз468286 0.0 1018762
18:00−15ссз388999 0.0 1019284
21:00−19с399469 0.0 1022279
10 марта, ср
ср1000:00−22ссз37960 0.0 1024197
03:00−24ссз36960 0.0 1026124
06:00−25ссз36960 0.0 1027138
09:00−23с36920 0.0 1029259
12:00−17с35800 0.0 1030492
15:00−14ссз35730 0.0 1030759
18:00−16сз23870 0.0 103024
21:00−19сз23910 0.0 103138
11 марта, чт
чт1100:00−20зсз23912 0.0 103256
03:00−20зсз23933 0.0 103348
06:00−21сз23955 0.0 103329
09:00−17зсз23923 0.0 1034156
12:00−11зсз228360 0.0 1033473
15:00−9зюз228280 0.1 1033638
18:00−13ююз129187 0.0 103220
21:00−15ююз239243 0.0 103227
12 марта, пт
пт1200:00−17ююз23910 0.0 103226
03:00−19ююз33900 0.0 103272
06:00−20ю36880 0.0 1031114
09:00−17ю48800 0.0 1031264
12:00−11ю59830 0.0 1029475
15:00−8ю611835 0.0 1027656
18:00−10ююв5128543 0.0 1025522
21:00−13ю5158621 0.0 1025460